Location: Davay�
(46.3036°N, 4.7433°E)
Time: 21:01:32
(UTC+00:00)

Daily predictions for brighter satellites

Satellite Brightness Start Highest point End
(mag) Time Altitude Azimuth Time Altitude Azimuth Time Altitude Azimuth
COSMOS 2428 4.0 20:04:59 10° SSE 20:09:04 21° E 20:13:09 10° NE
Cosmos 1844 4.2 20:04:13 10° NNW 20:09:53 53° ENE 20:15:28 10° SE
Cosmos 1703 4.0 20:06:57 10° SSE 20:10:29 35° E 20:14:03 10° NNE
Resurs 1-3 4.1 20:06:57 10° S 20:11:18 64° W 20:15:40 10° NNW
Cosmos 2322 4.3 20:06:27 10° S 20:11:36 36° ESE 20:16:46 10° NE
Cosmos 1745 Rocket 4.1 20:05:59 10° S 20:12:06 67° E 20:18:20 10° NNE
MetOp-B 4.3 20:08:12 10° SSE 20:13:28 61° ENE 20:18:45 10° N
SL-08 ROCKET BODY 4.4 20:08:06 10° S 20:13:59 70° E 20:20:01 10° NNE
Cosmos 2263 Rocket 3.9 20:10:35 10° NW 20:15:16 28° WSW 20:19:56 10° SSW
Cosmos 2219 Rocket 3.1 20:16:04 10° SSE 20:20:45 28° ESE 20:25:28 10° NE
ATLAS CENTAUR R/B 2.7 20:17:51 10° NNW 20:20:59 25° NE 20:24:03 10° E
ERS-1 Rocket 4.0 20:17:19 10° SE 20:21:44 31° ENE 20:26:09 10° N
Cosmos 1818 3.5 20:16:39 10° SSW 20:22:04 77° ESE 20:27:32 10° NE
Cosmos 2360 Rocket 2.2 20:17:28 10° SSW 20:23:06 79° ESE 20:28:48 10° NNE
USA 215 3.9 20:18:50 10° ENE 20:24:34 31° SE 20:30:13 10° S
SPOT 5 4.0 20:23:30 10° SE 20:27:49 30° ENE 20:31:58 10° N
Atlas Centaur 2 3.8 20:26:38 10° SW 20:30:27 18° S 20:34:39 10° SE
Landsat 7 4.0 20:26:31 10° SSE 20:31:12 61° ENE 20:35:54 10° N
Cosmos 1825 Rocket 3.7 20:28:10 10° S 20:32:31 59° E 20:36:56 10° NNE
Cosmos 2333 Rocket 2.7 20:29:15 10° S 20:34:29 39° ESE 20:39:46 10° NE
CZ-2C R/B 4.0 20:30:38 10° N 20:35:44 43° WNW 20:40:43 10° SW
Cosmos 1812 Rocket 4.4 20:35:33 10° NNW 20:39:44 48° W 20:43:53 10° SSW
GEOS 3 Rocket 3.8 20:35:01 10° NE 20:40:19 53° ESE 20:45:33 10° SSW
SL-16 R/B 4.0 20:38:25 10° WSW 20:43:39 37° NW 20:48:54 10° NNE
Spot 2 Rocket 3.5 20:39:42 10° SSE 20:44:48 88° ENE 20:49:56 10° NNW
IGS 5A 3.4 20:42:27 10° SSE 20:46:37 86° ENE 20:50:48 10° NNW
Cosmos 1315 Rocket 3.8 20:43:02 10° N 20:46:48 34° ENE 20:49:46 15° SE
ATLAS 5 CENTAUR R/B 1.9 20:47:31 10° SW 20:51:38 70° NW 20:56:19 10° NE
CARTOSAT-1 3.9 20:49:41 14° SE 20:53:10 52° ENE 20:57:23 10° N
USA 81 4.4 20:48:47 11° SSE 20:53:42 50° E 20:58:47 10° NNE
Cosmos 2278 Rocket 3.3 20:48:58 10° NNW 20:54:07 34° NE 20:58:50 12° ESE
Cosmos 1844 Rocket 3.1 20:50:57 10° NNW 20:56:27 60° WSW 21:01:37 11° S
Cosmos 1709 Rocket 4.0 20:50:45 10° S 20:57:02 82° E 21:03:25 10° N
USA 267 4.1 20:51:24 10° E 20:57:38 48° NNE 21:03:52 10° NW
Meteor 1-11 4.2 20:57:50 10° S 21:03:25 74° E 21:09:07 10° NNE
SPOT 1/Viking Rocket 3.6 21:00:43 12° S 21:05:29 80° WSW 21:10:41 10° NNW
Cosmos-2242 3.6 21:03:24 10° NNW 21:07:40 55° W 21:11:55 10° S
Cosmos 1400 Rocket 3.6 21:04:31 10° NNW 21:08:23 48° W 21:12:01 11° S
Cosmos 2221 3.3 21:08:38 10° N 21:12:44 38° ENE 21:15:14 20° SE
Cosmos 2184 Rocket 4.5 21:08:52 16° SSE 21:13:26 43° E 21:19:20 10° NNE
Lacrosse 5 rocket 4.1 21:11:13 10° NW 21:14:12 18° N 21:17:04 10° NE
Resurs 01 Rocket 3.8 21:11:41 10° SW 21:15:06 22° W 21:18:32 10° NW
Terra 2.0 21:14:58 20° SSE 21:18:13 61° ENE 21:22:56 10° N
SAR-Lupe-2 3.8 21:15:45 10° N 21:19:21 71° WNW 21:22:54 10° SSW
TSX-5 4.4 21:24:28 10° NNW 21:27:50 43° ENE 21:30:04 22° ESE
Cosmos 2058 3.8 21:27:37 24° SE 21:29:15 32° E 21:32:57 10° NNE
NOSS 3-4 (A) 4.4 21:22:53 10° NNW 21:29:35 52° NE 21:36:03 14° ESE
NOSS 3-4 (C) 4.4 21:22:59 10° NNW 21:29:41 51° NE 21:36:11 14° ESE
NOSS 3-3 (A) 4.0 21:32:57 10° SW 21:38:49 86° NW 21:45:29 10° NE
NOSS 3-3 (C) 4.0 21:33:03 10° SW 21:38:55 87° NW 21:45:37 10° NE
Cosmos 1825 3.9 21:39:57 17° E 21:40:30 17° E 21:43:02 10° NE
Cosmos 1980 3.9 21:41:49 21° S 21:45:24 50° ESE 21:50:51 10° NE
Cosmos 1538 Rocket 4.4 21:40:44 10° SSW 21:46:03 67° WNW 21:51:23 10° NNE
JB-3 4.4 21:42:49 10° NNE 21:46:37 56° E 21:48:04 33° SSE
Meteor 2-17 Rocket 4.5 21:43:29 22° S 21:47:31 65° E 21:53:30 10° NNE
Cosmos 1076 Rocket 3.9 21:47:33 31° SSE 21:49:12 47° E 21:53:20 10° NNE
Nadezhda 3 Rocket 4.3 21:45:21 10° N 21:51:39 58° ENE 21:55:18 25° SSE
COSMOS 2428 3.1 21:47:10 10° SW 21:52:47 66° WNW 21:58:27 10° NNE
Cosmos 2154 Rocket 4.2 21:49:47 24° SSE 21:53:24 56° E 21:59:28 10° NNE
Cosmos 2084 4.0 21:49:54 10° NW 21:54:13 49° WSW 21:56:03 30° S
Cosmos 2151 4.3 21:55:43 23° ESE 21:56:40 25° E 22:00:12 10° NNE
ATLAS 2AS CENTAUR R/B 3.1 21:50:01 10° NW 21:57:38 66° NE 22:02:39 20° SE
DELTA 2 R/B (1) 4.1 21:52:56 10° SW 21:58:00 36° SSE 22:01:15 20° ESE
Cosmos 2074 Rocket 4.0 21:54:31 18° S 21:59:21 85° W 22:05:36 10° N
Thor Agena Rocket 4.1 21:54:57 10° NNE 21:59:43 38° E 22:01:29 29° SE
ATLAS CENTAUR R/B 2.1 21:56:34 10° NW 21:59:55 34° WSW 22:00:56 29° SSW
ERS-1 Rocket 4.1 21:56:48 15° SSW 22:00:25 36° W 22:05:06 10° NNW
Cosmos 1869 3.5 21:56:51 10° NNW 22:00:49 67° W 22:02:34 32° S
BREEZE-M DEB (TANK) 2.5 21:56:45 10° WNW 22:01:40 54° N 22:03:23 19° ENE
Genesis I 3.4 22:00:58 40° SSE 22:01:44 46° ESE 22:05:29 10° NE
Cosmos 2237 Rocket 2.2 21:59:40 22° S 22:03:22 65° ESE 22:09:02 10° NNE
Cosmos 1842 Rocket 4.1 22:00:07 10° NNW 22:04:21 52° W 22:06:35 25° SSW
Cosmos 2219 Rocket 3.1 21:59:02 10° SW 22:04:25 49° WNW 22:09:53 10° NNE
SPOT 5 4.0 22:02:26 17° SSW 22:05:47 37° W 22:10:15 10° NNW
Cosmos 1371 Rocket 4.4 22:01:02 10° NNW 22:06:13 55° ENE 22:08:51 28° SE
USA 215 3.3 22:01:26 10° NE 22:08:02 85° NW 22:14:35 10° WSW
Spot 4 4.3 22:06:50 29° SE 22:08:56 49° ENE 22:13:33 10° N
Cosmos 2344 3.7 22:05:02 18° S 22:10:28 53° ESE 22:18:03 10° NE
Cosmos 158 Rocket 3.8 22:09:32 31° S 22:11:49 67° ESE 22:16:42 10° NNE
Gblst 52 Del rocket 4.5 22:08:25 10° WNW 22:14:06 60° SW 22:17:16 29° SSE
Cosmos 2112 Rocket 4.0 22:12:34 29° S 22:15:18 68° ESE 22:20:38 10° NNE
Elektron 1 4.1 22:15:07 34° SSW 22:16:26 79° SE 22:21:29 10° NE
Atlas Centaur 2 4.2 22:14:59 10° SW 22:17:13 14° SSW 22:17:13 14° SSW
Cosmos 2333 Rocket 3.6 22:13:30 10° WSW 22:18:46 38° NW 22:24:06 10° NNE
ALOS 2 3.8 22:18:57 24° ESE 22:20:38 31° ENE 22:24:31 10° N
Cosmos 2327 Rocket 4.5 22:17:25 24° S 22:21:22 84° W 22:27:31 10° N
Iridium 2 3.6 22:21:08 10° N 22:24:58 77° E 22:25:48 52° SSE
Cosmos 1892 3.3 22:26:26 30° SW 22:27:56 51° WNW 22:31:41 10° N
NOSS 0 Rocket 4.2 22:22:27 10° SW 22:28:34 70° WNW 22:34:46 10° NNE
EO 1 Del DPAF 3.2 22:25:40 10° NNE 22:29:23 59° ESE 22:29:55 53° SE
Cosmos 2056 Rocket 3.6 22:24:40 10° NNW 22:30:06 75° ENE 22:32:26 35° SE
GP-B 4.0 22:27:58 10° NNE 22:32:04 35° E 22:33:05 31° ESE
Cosmos 1295 Rocket 4.4 22:29:35 30° S 22:32:52 86° E 22:39:01 10° N
Cosmos 1606 3.4 22:32:59 10° N 22:36:43 43° ENE 22:37:25 38° ESE
Cosmos 2278 Rocket 2.9 22:32:57 10° NW 22:38:19 44° WSW 22:40:40 29° SSW
Cosmos 1408 2.8 22:37:56 46° SW 22:38:44 61° W 22:42:18 10° N
Cosmos 962 Rocket 4.5 22:37:13 32° S 22:40:21 79° E 22:46:45 10° N
USA 267 3.2 22:36:39 28° SE 22:40:25 76° SW 22:47:01 10° NW
Cosmos 2297 4.0 22:35:24 10° NNW 22:41:07 62° ENE 22:43:51 31° SE
Cosmos 44 3.1 22:40:50 48° SE 22:41:18 50° ESE 22:45:35 10° NE
Cosmos 1943 Rocket 3.5 22:36:35 10° NNW 22:41:44 34° NE 22:45:29 17° ESE
MOS 1-B Rocket 4.3 22:35:18 10° NNE 22:43:00 80° ESE 22:46:38 30° S
Cosmos 1680 Rocket 3.9 22:39:45 20° SW 22:43:23 63° WNW 22:48:41 10° NNE
SL-16 R/B 2.4 22:46:34 38° SSE 22:48:29 56° ESE 22:54:02 10° NE
Cosmos 371 Rocket 3.8 22:44:46 10° NNW 22:49:32 51° ENE 22:51:21 33° ESE
Cosmos 2221 4.5 22:46:43 10° NW 22:50:02 21° W 22:52:05 16° WSW
CREW DRAGON DEMO-1 DEB 3.1 22:53:16 66° N 22:53:16 66° N 22:56:09 10° ENE
APEX 4.2 22:51:31 10° N 22:53:51 25° NE 22:53:51 25° NE
Lacrosse 5 rocket 3.4 22:51:06 10° NW 22:54:29 25° NNE 22:57:43 10° ENE
Terra 4.0 22:53:51 12° SW 22:56:22 17° W 22:59:26 10° NW
Cosmos 1452 Rocket 4.2 22:51:53 10° NNW 22:56:59 47° ENE 22:59:20 29° ESE
Cosmos 1515 Rocket 4.5 22:54:58 10° N 22:59:02 37° ENE 23:00:08 32° ESE
IRIDIUM 114 4.4 22:59:06 42° SSE 23:00:47 65° E 23:05:58 10° N
Cosmos 1766 Rocket 3.4 23:01:32 54° S 23:02:29 82° E 23:06:56 10° N
Cosmos 1328 Rocket 3.5 23:00:55 10° N 23:05:15 72° E 23:06:06 54° SE
Okean 3 Rocket 3.6 23:07:35 48° SSW 23:08:45 75° W 23:13:13 10° N
IRIDIUM 103 4.3 23:08:14 44° S 23:09:54 78° E 23:15:09 10° N
Meteor 2-3 Rocket 3.8 23:12:54 41° SSE 23:14:48 64° E 23:20:27 10° NNE
Cosmos 1340 2.5 23:15:33 70° ESE 23:15:42 71° E 23:19:28 10° NNE
Cosmos 1825 3.4 23:14:44 30° WSW 23:15:43 35° WNW 23:19:14 10° N
Cosmos 864 Rocket 4.5 23:16:18 38° S 23:18:52 80° E 23:25:11 10° N
Cosmos 2228 Rocket 4.2 23:15:47 10° N 23:20:02 35° ENE 23:21:26 29° ESE
Cosmos 2218 Rocket 4.0 23:17:43 37° S 23:20:27 88° E 23:26:48 10° N
NOSS 3-4 (A) 4.3 23:13:53 10° NW 23:20:34 46° WSW 23:23:28 32° SSW
NOSS 3-4 (C) 4.3 23:13:58 10° NW 23:20:41 46° WSW 23:23:36 33° SSW
Aureole 2 Rocket 3.6 23:19:00 10° NW 23:20:49 28° WNW 23:20:49 28° WNW
Cosmos 2366 rocket 4.0 23:21:57 37° S 23:24:41 90° NE 23:31:04 10° N
Meteor 1-26 Rocket 4.3 23:20:05 10° N 23:26:08 84° E 23:28:23 41° SSE
IRIDIUM 106 4.4 23:26:31 43° SSW 23:28:13 74° W 23:33:28 10° N
Cosmos 1743 Rocket 3.9 23:29:40 45° ESE 23:30:16 49° E 23:34:28 10° NNE
Cosmos 2369 Rocket 2.8 23:24:48 10° NNW 23:30:17 52° ENE 23:33:18 26° ESE
SL-4 R/B 3.7 23:33:31 15° NNW 23:33:31 15° NNW 23:34:01 10° NNW
Cosmos 1959 Rocket 4.5 23:30:32 37° SSW 23:33:09 77° W 23:39:23 10° N
Cosmos 304 Rocket 4.0 23:28:37 10° NNW 23:33:26 63° ENE 23:35:00 40° SE
Cosmos 2151 4.4 23:32:17 24° WSW 23:33:50 30° WNW 23:37:40 10° N
YAOGAN 11 4.2 23:33:15 49° SE 23:34:16 66° ENE 23:38:40 10° N
Helios 1A 2.9 23:34:08 62° SSE 23:34:48 83° ENE 23:38:58 10° NNW
Cosmos 1933 3.6 23:31:13 10° NNW 23:35:08 53° W 23:35:33 50° WSW
COSMOS 2455 2.8 23:32:59 10° NNW 23:39:04 87° NE 23:41:47 35° SE
DELTA 2 R/B (1) 4.4 23:38:38 10° WSW 23:51:38 - ESE 23:42:01 32° SW
Cosmos 2237 Rocket 4.1 23:43:16 10° WSW 23:47:56 25° NW 23:52:37 10° N
ATLAS 2AS CENTAUR R/B 3.6 23:41:43 10° NW 23:48:05 32° WSW 23:50:03 28° SW
Cosmos 1812 4.1 23:47:04 10° NNE 23:50:29 29° ENE 23:51:25 26° E
USA 215 4.5 23:44:33 10° NE 23:50:38 42° NNW 23:56:42 10° W
Cosmos 1151 Rocket 4.0 23:47:59 10° NNW 23:51:55 34° W 23:52:34 32° WSW
Cosmos 1782 2.6 23:48:46 10° N 23:52:44 81° W 23:53:04 72° SSW
Cosmos 1408 Rocket 4.1 23:52:07 40° WSW 23:53:10 50° WNW 23:57:28 10° N
CZ-2D R/B 4.4 23:52:22 10° ENE 23:54:49 13° E 23:57:16 10° ESE
